Location: Unspecified
(0.0000°N, 0.0000°E)
Time: 21:04:40
(UTC+00:00)

Vanguard 1 Rocket - Pass Details

Date: 23 March 2018
Orbit: 649 x 4227 km, 34.3° (Epoch: 16 November)

Event Time Altitude Azimuth Distance (km) Brightness Sun altitude
Rises 08:40:38 0° 219° (SW) 6,509 11.4 38.5°
Reaches altitude 10° 08:47:24 10° 204° (SSW) 4,707 10.9 40.2°
Maximum altitude 08:55:06 19° 164° (SSE) 3,056 10.5 42.1°
Drops below altitude 10° 09:00:22 10° 120° (ESE) 3,057 10.9 43.4°
Sets 09:03:28 0° 101° (E) 3,646 11.2 44.2°
